Location: Sommers-Bausch Observatory
(40.0037°N, 105.2635°W)
Time: 22:55:08
(UTC-06:00)

Daily predictions for brighter satellites

Satellite Brightness Start Highest point End
(mag) Time Altitude Azimuth Time Altitude Azimuth Time Altitude Azimuth
Cosmos 2237 Rocket 4.1 19:02:47 10° WSW 19:07:50 32° WNW 19:12:55 10° N
Cosmos 1484 Rocket 2.7 19:06:33 10° SSE 19:10:23 76° ENE 19:14:19 10° N
SAR-Lupe-4 3.9 19:08:23 10° SE 19:11:48 44° ENE 19:15:13 10° N
USA 215 4.0 19:12:53 10° ENE 19:18:39 32° SE 19:24:21 10° S
Cosmos 1758 3.7 19:15:35 10° SSE 19:19:29 45° E 19:23:25 10° NNE
OAO 3 Rocket 3.9 19:15:25 10° WSW 19:19:55 45° S 19:24:29 10° ESE
Cosmos 724 4.3 19:14:14 10° SSW 19:20:06 71° ESE 19:26:09 10° NE
Cosmos 1378 3.5 19:20:28 10° NNW 19:24:10 69° W 19:27:53 10° S
Cosmos 1408 Rocket 3.5 19:22:51 10° N 19:27:12 69° E 19:31:29 10° SSE
SKYMED 2 4.2 19:23:43 10° N 19:28:02 62° WNW 19:32:18 10° SSW
Cosmos 1464 Rocket 4.0 19:23:01 10° S 19:29:15 85° E 19:35:27 10° N
Cosmos 2034 Rocket 4.0 19:23:20 10° S 19:29:30 64° E 19:35:46 10° NNE
SL-16 R/B 3.4 19:24:42 10° SW 19:30:10 47° WNW 19:35:40 10° NNE
Cosmos 1766 4.2 19:27:41 10° SSW 19:31:34 53° W 19:35:29 10° N
TELKOM 3 4.3 19:29:29 10° NW 19:32:11 31° NNE 19:33:29 18° ENE
Helios 1A 3.5 19:33:11 10° SE 19:37:04 37° ENE 19:40:59 10° N
FENGYUN 3A 4.5 19:33:25 10° SE 19:38:01 30° ENE 19:42:37 10° N
Meteor 1-21 Rocket 4.2 19:32:41 10° N 19:38:11 61° ENE 19:43:38 10° SSE
Spot 1 4.3 19:33:44 10° SSE 19:38:17 54° ENE 19:42:36 10° N
Meteor 1-28 Rocket 3.1 19:39:35 10° N 19:43:19 87° WNW 19:47:01 10° SSW
Meteor 1-29 3.6 19:40:35 10° NNE 19:43:49 34° E 19:47:01 10° SSE
GPS 2-04 Rocket1 3.3 19:44:48 10° WSW 19:47:59 35° S 19:49:39 22° ESE
H-2A R/B 3.8 19:52:21 23° E 19:53:06 25° ENE 19:56:18 10° NNE
Cosmos 1805 3.8 19:53:11 10° SSW 19:57:04 60° W 20:00:59 10° N
NOAA 12 4.4 19:51:59 10° S 19:57:13 71° WSW 20:02:31 10° NNW
ASTEX 1 3.7 19:53:01 10° NNE 19:57:40 41° E 20:02:16 10° SSE
Cosmos 1743 Rocket 3.5 19:53:39 10° N 19:58:05 71° E 20:02:27 10° SSE
Resurs 1-3 3.6 19:54:06 10° SSE 19:58:24 58° ENE 20:02:44 10° N
Elektron 1 3.7 19:58:12 10° SSW 20:01:05 60° ESE 20:02:39 25° NE
Cosmos 1452 Rocket 4.4 19:56:17 10° NNW 20:01:21 51° WSW 20:06:24 10° S
Cosmos 1943 Rocket 3.4 19:57:21 10° N 20:01:36 21° NE 20:02:44 20° ENE
ALOS 2.5 19:58:47 15° SE 20:02:27 47° ENE 20:06:56 10° N
Helios 1B rocket 2.3 20:02:22 10° NNE 20:06:30 88° ESE 20:10:37 10° SSW
Cosmos 2251 Rocket 4.2 20:02:03 10° SSE 20:06:33 30° E 20:11:03 10° NE
Resurs 01 Rocket 1.6 20:02:13 10° SSE 20:06:40 87° WSW 20:11:09 10° NNW
ISS -2.7 20:05:46 10° WSW 20:08:57 52° NNW 20:10:31 26° NNE
SL-8 R/B 4.0 20:04:21 10° WSW 20:09:06 64° NNW 20:12:18 20° NE
Cosmos 2369 Rocket 2.3 20:04:16 10° NNW 20:09:48 53° ENE 20:12:52 26° SE
Cosmos 1943 3.1 20:04:57 10° S 20:10:29 62° ESE 20:16:02 10° NNE
Cosmos 1953 3.8 20:07:25 10° SSW 20:11:10 39° WNW 20:14:56 10° N
Cosmos 1733 3.1 20:11:16 10° S 20:15:06 65° E 20:18:57 10° NNE
Gbstr 26 Del rocket 3.1 20:11:28 10° SW 20:15:50 85° SE 20:19:04 24° NE
Cosmos 839 Rocket 4.3 20:09:10 10° NNW 20:16:43 58° NE 20:20:01 29° ESE
ERBS 4.4 20:15:49 10° NNW 20:17:57 17° NNE 20:17:57 17° NNE
CENTAUR R/B 2.4 20:12:24 10° SSW 20:18:22 78° ESE 20:25:08 10° NE
Cosmos 1420 Rocket 4.5 20:15:15 10° NNW 20:20:30 63° WSW 20:25:44 10° S
Cosmos 2263 4.5 20:16:09 10° NNW 20:21:45 48° ENE 20:23:30 37° ESE
Cosmos 1470 2.7 20:18:44 10° S 20:22:37 80° W 20:26:31 10° N
Cosmos 1674 2.8 20:19:44 10° N 20:23:37 76° W 20:26:29 17° S
Abrixas 4.1 20:24:53 10° W 20:27:33 28° NNW 20:27:53 28° N
Cosmos 2058 4.3 20:25:53 10° N 20:28:02 25° NNE 20:28:02 25° NNE
GP-B 3.1 20:25:45 10° N 20:30:09 58° E 20:30:26 57° ESE
Nadezhda 4 Rocket 4.5 20:26:54 10° NNW 20:33:03 61° W 20:39:08 10° S
Spot 2 Rocket 4.4 20:28:25 10° S 20:33:15 48° W 20:38:08 10° NNW
Cosmos 2279 Rocket 4.2 20:32:29 40° ESE 20:33:40 44° E 20:39:29 10° NNE
Cosmos 2151 2.8 20:34:15 10° N 20:38:14 70° NE 20:38:14 70° NE
Cosmos 1092 Rocket 4.2 20:37:01 10° NNW 20:43:11 70° W 20:49:16 10° S
Envisat 4.3 20:45:50 27° NE 20:45:50 27° NE 20:48:42 10° N
ATLAS 5 CENTAUR R/B 4.4 20:40:50 10° W 20:44:20 19° NW 20:48:04 10° N
SL-24 R/B - RUBIN 2 4.5 20:39:29 10° NNW 20:46:06 62° NE 20:47:14 53° E
Cosmos 158 Rocket 4.3 20:45:14 10° SSW 20:50:02 59° WNW 20:54:52 10° NNE
Meteor 2-1 Rocket 4.2 20:50:45 62° ESE 20:51:00 62° E 20:56:48 10° NNE
Meteor 1-16 Rocket 3.9 20:47:46 10° S 20:53:04 88° E 20:58:25 10° N
Cosmos 1655 Rocket 3.8 20:47:40 10° N 20:53:54 72° E 20:55:08 56° SE
Cosmos 2026 Rocket 3.8 20:48:00 10° N 20:54:09 80° E 20:55:57 48° SSE
Cosmos 1634 Rocket 4.2 20:52:27 10° SSW 20:58:39 68° W 21:04:51 10° N
USA 215 3.4 20:56:44 17° NE 21:01:55 69° NW 21:08:23 10° WSW
Meteor 1-11 4.2 21:01:00 10° N 21:06:48 83° W 21:07:34 68° S
ERS-1 Rocket 4.0 21:15:50 38° N 21:15:50 38° N 21:18:57 10° N
Cosmos 1943 Rocket 3.2 21:40:15 10° NNW 21:44:17 43° WNW 21:44:17 43° WNW
Cosmos 2369 Rocket 4.2 21:49:17 10° NW 21:53:22 21° W 21:54:43 19° WSW
